星链-30790 (STARLINK-30790 )

导读

STARLINK-30790是美国SpaceX公司星链(Starlink)卫星互联网项目的成员,于2023年10月22日发射升空,属于低轨通信卫星。作为星链星座的组成部分,它承担着为全球提供高速互联网接入服务的任务,尤其可服务偏远地区、灾害现场等传统网络难以覆盖的场景,进一步扩大了星链系统的全球覆盖范围。

Basic Information
目录编号:
58127
目录名称:
STARLINK-30790
国际标识:
2023-162K
轨道中心:
EARTH
卫星名称:
星链-30790
卫星全名:
星链-30790 (STARLINK-30790 )
卫星状态:
在轨 (已飞行970 天)
发射日期:
2023-10-22 UTC
国别 :
美国 (US)
星等 :
--
Orbit Information
数据来源 国际轨道数据 AOE轨道数据
星历时间 2026-06-17T09:34:15+0800
1天前
查看轨道信息
2026-06-16T02:00:00+0800
2天前
查看轨道信息
半长轴 6884.977km 6885.312km
偏心率 0.001902 0.0018049
轨道倾角 42.997° 42.998°
近地点辐角 317.764° 307.283°
升交点赤经 295.719° 303.059°
平近点角 42.174° 47.834°
近地点 493.744km 494.747km
远地点 519.936km 519.603km
周期 94.757分钟 94.764分钟
每日圈数 15.196693 15.195583
Detailed Information
固有亮度:
5
最大亮度:
0.3
卫星平台:
Starlink v2.0 mini
覆盖范围:
全球
运营商:
太空探索技术公司
运营商所在国:
美国
制造商(研发单位):
太空探索技术公司
制造商所在国:
美国
使用方式:
暂无
Satellite Introduction
星链(Starlink)计划是由太空探索技术公司(SpaceX)提出的一个巨型低轨卫星互联网星座项目,计划在2019年至2024年间在太空搭建由约1.2万颗卫星组成的“星链”网络,其中1584颗将部署在地球上空550千米处的近地轨道,并从2020年开始工作。该卫星仍在工作。
2D Orbit Map
3D Orbit Map
Orbit Altitude Analysis Chart
Orbit Inclination Analysis Chart
Orbit Comprehensive Analysis Chart
View Comprehensive Chart